| time (UTC) | temp F | wind direction | speed knots | gust knots | rain 1hr in | rain 24hr in | rain mn in | humidity % | barometer mb |
| 20260504042016 | 50 | 248 | 1.7 | 3.5 | 0.00 | 0.00 | 0.00 | 50 | 1003.9 |
| 20260504041016 | 50 | 248 | 0.9 | 1.7 | 0.00 | 0.00 | 0.00 | 49 | 1003.9 |
| 20260504040015 | 50 | 0.0 | 1.7 | 0.00 | 0.00 | 0.00 | 50 | 1004.0 | |
| 20260504035016 | 50 | 0.0 | 1.7 | 0.00 | 0.00 | 0.00 | 48 | 1004.0 | |
| 20260504034016 | 51 | 248 | 0.9 | 1.7 | 0.00 | 0.00 | 0.00 | 47 | 1003.9 |
| 20260504033016 | 51 | 248 | 1.7 | 3.5 | 0.00 | 0.00 | 0.00 | 47 | 1004.1 |
| 20260504032016 | 51 | 225 | 1.7 | 3.5 | 0.00 | 0.00 | 0.00 | 47 | 1004.1 |
| 20260504031016 | 51 | 225 | 1.7 | 2.6 | 0.00 | 0.00 | 0.00 | 45 | 1004.2 |
| 20260504030016 | 51 | 225 | 1.7 | 5.2 | 0.00 | 0.00 | 0.00 | 45 | 1004.2 |
| 20260504025016 | 51 | 248 | 0.9 | 2.6 | 0.00 | 0.00 | 0.00 | 44 | 1004.3 |
| 20260504024016 | 51 | 248 | 0.9 | 1.7 | 0.00 | 0.00 | 0.00 | 42 | 1004.3 |
| 20260504023036 | 51 | 270 | 0.9 | 2.6 | 0.00 | 0.00 | 0.00 | 43 | 1004.3 |
| 20260504022016 | 50 | 0.0 | 1.7 | 0.00 | 0.00 | 0.00 | 43 | 1004.3 | |
| 20260504021036 | 49 | 0.0 | 0.0 | 0.00 | 0.00 | 0.00 | 43 | 1004.3 | |
| 20260504020016 | 49 | 0.0 | 0.0 | 0.00 | 0.00 | 0.00 | 42 | 1004.3 | |
| 20260504015036 | 48 | 0.0 | 0.0 | 0.00 | 0.00 | 0.00 | 45 | 1004.3 | |
| 20260504014016 | 47 | 0.0 | 0.0 | 0.00 | 0.00 | 0.00 | 45 | 1004.3 | |
| 20260504013016 | 46 | 0.0 | 0.0 | 0.00 | 0.00 | 0.00 | 46 | 1004.2 | |
| 20260504012016 | 47 | 0.0 | 0.0 | 0.00 | 0.00 | 0.00 | 47 | 1004.2 | |
| 20260504011016 | 47 | 0.0 | 0.0 | 0.00 | 0.00 | 0.00 | 46 | 1004.1 | |
| 20260504010016 | 48 | 0.0 | 0.0 | 0.00 | 0.00 | 0.00 | 49 | 1004.2 | |
| 20260504005016 | 48 | 0.0 | 0.0 | 0.00 | 0.00 | 0.00 | 42 | 1004.1 | |
| 20260504004036 | 49 | 0.0 | 0.0 | 0.00 | 0.00 | 0.00 | 42 | 1004.1 | |
| 20260504003036 | 50 | 0.0 | 0.0 | 0.00 | 0.00 | 0.00 | 40 | 1004.1 | |
| 20260504002015 | 51 | 0.0 | 0.0 | 0.00 | 0.00 | 0.00 | 38 | 1003.9 | |
| 20260504001016 | 52 | 0.0 | 0.0 | 0.00 | 0.00 | 0.00 | 41 | 1004.0 | |
| 20260504000016 | 53 | 0.0 | 0.0 | 0.00 | 0.00 | 0.00 | 30 | 1004.0 | |
| 20260503235016 | 53 | 0.0 | 0.0 | 0.00 | 0.00 | 0.00 | 30 | 1004.0 | |
| 20260503234016 | 54 | 0.0 | 0.0 | 0.00 | 0.00 | 0.00 | 32 | 1003.9 | |
| 20260503233016 | 55 | 0.0 | 0.0 | 0.00 | 0.00 | 0.00 | 30 | 1004.0 | |
| 20260503232016 | 55 | 0.0 | 0.0 | 0.00 | 0.00 | 0.00 | 28 | 1003.9 | |
| 20260503231036 | 55 | 0.0 | 2.6 | 0.00 | 0.00 | 0.00 | 29 | 1004.0 | |
| 20260503230036 | 55 | 0.0 | 0.0 | 0.00 | 0.00 | 0.00 | 25 | 1003.9 | |
| 20260503225036 | 55 | 0.0 | 1.7 | 0.00 | 0.00 | 0.00 | 25 | 1004.1 | |
| 20260503224016 | 55 | 248 | 0.9 | 1.7 | 0.00 | 0.00 | 0.00 | 28 | 1004.1 |
| 20260503223015 | 55 | 0.0 | 1.7 | 0.00 | 0.00 | 0.00 | 27 | 1004.1 | |
| 20260503222016 | 56 | 0.0 | 1.7 | 0.00 | 0.00 | 0.00 | 27 | 1004.3 | |
| 20260503221016 | 55 | 0.0 | 1.7 | 0.00 | 0.00 | 0.00 | 25 | 1004.3 | |
| 20260503220016 | 56 | 248 | 1.7 | 3.5 | 0.00 | 0.00 | 0.00 | 25 | 1004.3 |
| 20260503215016 | 57 | 293 | 1.7 | 3.5 | 0.00 | 0.00 | 0.00 | 21 | 1004.2 |
| 20260503214036 | 57 | 135 | 0.9 | 3.5 | 0.00 | 0.00 | 0.00 | 22 | 1004.4 |
| 20260503213016 | 57 | 0.0 | 0.9 | 0.00 | 0.00 | 0.00 | 25 | 1004.5 | |
| 20260503212016 | 56 | 0.0 | 1.7 | 0.00 | 0.00 | 0.00 | 24 | 1004.5 | |
| 20260503211036 | 56 | 270 | 0.9 | 2.6 | 0.00 | 0.00 | 0.00 | 23 | 1004.6 |
| 20260503210016 | 56 | 293 | 1.7 | 3.5 | 0.00 | 0.00 | 0.00 | 25 | 1004.7 |
| 20260503205016 | 56 | 270 | 1.7 | 5.2 | 0.00 | 0.00 | 0.00 | 25 | 1004.8 |
| 20260503204016 | 55 | 225 | 0.9 | 2.6 | 0.00 | 0.00 | 0.00 | 27 | 1004.8 |
| 20260503203016 | 55 | 293 | 0.9 | 3.5 | 0.00 | 0.00 | 0.00 | 27 | 1005.0 |
| 20260503202016 | 55 | 225 | 0.9 | 5.2 | 0.00 | 0.00 | 0.00 | 30 | 1005.0 |
| 20260503201016 | 54 | 270 | 1.7 | 3.5 | 0.00 | 0.00 | 0.00 | 28 | 1005.1 |
| 20260503200016 | 55 | 293 | 1.7 | 3.5 | 0.00 | 0.00 | 0.00 | 27 | 1005.2 |
| 20260503195056 | 54 | 248 | 0.9 | 1.7 | 0.00 | 0.00 | 0.00 | 31 | 1005.5 |
| 20260503194016 | 54 | 90 | 0.9 | 2.6 | 0.00 | 0.00 | 0.00 | 33 | 1005.6 |
| 20260503193036 | 54 | 0.0 | 1.7 | 0.00 | 0.00 | 0.00 | 32 | 1005.7 | |
| 20260503192016 | 54 | 225 | 0.9 | 3.5 | 0.00 | 0.00 | 0.00 | 29 | 1005.8 |
| 20260503191016 | 54 | 293 | 1.7 | 7.0 | 0.00 | 0.00 | 0.00 | 27 | 1005.9 |
| 20260503190015 | 54 | 0.0 | 1.7 | 0.00 | 0.00 | 0.00 | 33 | 1006.0 | |
| 20260503185016 | 54 | 270 | 0.9 | 2.6 | 0.00 | 0.00 | 0.00 | 31 | 1006.1 |
| 20260503184016 | 54 | 270 | 1.7 | 5.2 | 0.00 | 0.00 | 0.00 | 29 | 1006.2 |
| 20260503183036 | 54 | 270 | 1.7 | 3.5 | 0.00 | 0.00 | 0.00 | 28 | 1006.3 |
| 20260503182016 | 55 | 270 | 1.7 | 6.1 | 0.00 | 0.00 | 0.00 | 28 | 1006.5 |
| 20260503181016 | 55 | 248 | 1.7 | 4.3 | 0.00 | 0.00 | 0.00 | 32 | 1006.6 |
| 20260503180016 | 54 | 225 | 1.7 | 5.2 | 0.00 | 0.00 | 0.00 | 30 | 1006.6 |
| 20260503175016 | 53 | 270 | 0.9 | 3.5 | 0.00 | 0.00 | 0.00 | 33 | 1006.8 |
| 20260503174016 | 53 | 225 | 1.7 | 6.1 | 0.00 | 0.00 | 0.00 | 32 | 1007.0 |
| 20260503173015 | 52 | 270 | 0.9 | 3.5 | 0.00 | 0.00 | 0.00 | 31 | 1007.1 |
| 20260503172016 | 53 | 180 | 0.9 | 3.5 | 0.00 | 0.00 | 0.00 | 32 | 1007.2 |
| 20260503171016 | 52 | 225 | 0.9 | 3.5 | 0.00 | 0.00 | 0.00 | 33 | 1007.3 |
| 20260503131016 | 44 | 0.0 | 0.0 | 0.00 | 0.00 | 0.00 | 55 | 1009.9 | |
| 20260503081016 | 37 | 0.0 | 0.0 | 0.00 | 0.00 | 0.00 | 67 | 1010.6 | |
| 20260503072036 | 37 | 0.0 | 0.0 | 0.00 | 0.00 | 0.00 | 67 | 1010.6 | |
| 20260503071016 | 37 | 0.0 | 0.0 | 0.00 | 0.00 | 0.00 | 67 | 1010.6 | |
| 20260503055016 | 38 | 0.0 | 0.0 | 0.00 | 0.00 | 0.00 | 66 | 1011.0 | |
| 20260503054056 | 38 | 0.0 | 0.0 | 0.00 | 0.00 | 0.00 | 66 | 1011.0 | |
| 20260503053016 | 38 | 0.0 | 0.0 | 0.00 | 0.00 | 0.00 | 66 | 1011.1 | |
| 20260503052016 | 38 | 0.0 | 0.0 | 0.00 | 0.00 | 0.00 | 65 | 1011.1 | |
| 20260503051015 | 38 | 0.0 | 0.0 | 0.00 | 0.00 | 0.00 | 66 | 1011.1 | |
| 20260503050016 | 38 | 0.0 | 0.0 | 0.00 | 0.00 | 0.00 | 64 | 1011.2 | |
| 20260503045016 | 39 | 0.0 | 0.0 | 0.00 | 0.00 | 0.00 | 63 | 1011.2 | |
| 20260503044016 | 39 | 0.0 | 0.0 | 0.00 | 0.00 | 0.00 | 63 | 1011.3 | |
| 20260503043015 | 39 | 0.0 | 0.0 | 0.00 | 0.00 | 0.00 | 62 | 1011.3 |